Location: Natural Bridges National Monument
(37.6093°N, 109.9767°W)
Time: 06:46:16
(UTC-07:00)

USA 32 - Visible Passes

Search period start: 20 December 2014 00:00
Search period end: 30 December 2014 00:00
Orbit: 779 x 783 km, 85.0° (Epoch: 13 December)

Date Brightness Start Highest point End Pass type
(mag) Time Alt. Az. Time Alt. Az. Time Alt. Az.
20 Dec 6.8 06:38:10 10° NE 06:40:28 13° ENE 06:42:47 10° E visible
23 Dec 6.6 06:39:50 10° NNE 06:43:45 21° ENE 06:47:38 10° SE visible
24 Dec 7.0 06:09:07 10° NE 06:10:47 11° ENE 06:12:27 10° E visible
26 Dec 5.8 06:42:12 10° NNE 06:46:56 34° E 06:51:37 10° SE visible
27 Dec 6.7 06:10:24 10° NNE 06:14:04 19° ENE 06:17:43 10° ESE visible
27 Dec 6.1 19:05:04 10° SSE 19:05:34 12° SSE 19:05:34 12° SSE visible
28 Dec 7.2 05:40:45 10° ENE 05:41:05 10° ENE 05:41:24 10° ENE visible
28 Dec 6.0 18:33:44 10° SE 18:34:12 12° ESE 18:34:12 12° ESE visible
28 Dec 6.1 20:12:58 10° SSW 20:14:49 21° SW 20:14:49 21° SW visible
29 Dec 4.8 06:44:53 10° N 06:50:02 55° E 06:55:08 10° SSE visible
29 Dec 4.8 19:39:59 10° S 19:43:31 44° SSW 19:43:31 44° SSW visible
